GW4795 Weather Reports


time (UTC)temp
F
wind
direction
speed
knots
gust
knots
rain 1hr
in
rain 24hr
in
rain mn
in
humidity
%
barometer
mb
20260504050508 63 298 0.0 0.9 0.00 0.00 0.00 69 1010.1
20260504050009 64 302 0.9 0.9 0.00 0.00 0.00 69 1010.1
20260504045504 64 288 0.9 1.7 0.00 0.00 0.00 67 1010.1
20260504045004 65 318 0.0 1.7 0.00 0.00 0.00 65 1010.1
20260504044514 65 330 0.9 0.9 0.00 0.00 0.00 65 1010.1
20260504044006 65 330 0.0 1.7 0.00 0.00 0.00 63 1010.1
20260504043509 66 330 0.0 1.7 0.00 0.00 0.00 62 1010.1
20260504043029 66 338 0.0 1.7 0.00 0.00 0.00 61 1010.1
20260504042509 67 291 0.0 1.7 0.00 0.00 0.00 59 1010.0
20260504042007 67 291 0.0 1.7 0.00 0.00 0.00 58 1010.0
20260504041524 68 315 0.0 1.7 0.00 0.00 0.00 57 1010.0
20260504041008 68 332 0.0 1.7 0.00 0.00 0.00 56 1009.9
20260504040509 68 286 0.0 1.7 0.00 0.00 0.00 54 1009.9
20260504040026 69 286 0.0 1.7 0.00 0.00 0.00 53 1009.9
20260504035509 69 286 0.0 1.7 0.00 0.00 0.00 53 1009.9
20260504035003 69 302 0.0 0.9 0.00 0.00 0.00 51 1009.8
20260504034511 70 277 0.0 1.7 0.00 0.00 0.00 51 1009.8
20260504034006 70 278 0.0 1.7 0.00 0.00 0.00 51 1009.7
20260504033508 70 278 0.0 1.7 0.00 0.00 0.00 50 1009.6
20260504033016 70 279 0.0 1.7 0.00 0.00 0.00 49 1009.7
20260504032508 71 265 0.0 1.7 0.00 0.00 0.00 49 1009.8
20260504032008 71 287 0.9 2.6 0.00 0.00 0.00 48 1009.9
20260504031523 71 257 0.9 2.6 0.00 0.00 0.00 48 1009.9
20260504031008 72 259 0.9 2.6 0.00 0.00 0.00 48 1009.9
20260504030511 72 254 0.9 3.5 0.00 0.00 0.00 47 1009.9
20260504030026 72 229 1.7 3.5 0.00 0.00 0.00 47 1009.9
20260504025510 73 261 0.9 2.6 0.00 0.00 0.00 47 1009.9
20260504025010 73 281 1.7 2.6 0.00 0.00 0.00 46 1009.9
20260504024528 73 306 0.0 2.6 0.00 0.00 0.00 46 1009.9
20260504024011 73 322 0.9 2.6 0.00 0.00 0.00 46 1009.9
20260504023503 73 283 0.9 1.7 0.00 0.00 0.00 46 1009.9
20260504023016 73 277 0.9 4.3 0.00 0.00 0.00 46 1009.9
20260504022507 73 221 1.7 7.0 0.00 0.00 0.00 45 1009.8
20260504022008 74 279 2.6 7.0 0.00 0.00 0.00 45 1009.9
20260504021521 74 246 1.7 6.1 0.00 0.00 0.00 46 1009.8
20260504021003 74 223 1.7 6.1 0.00 0.00 0.00 46 1009.9
20260504020503 74 321 2.6 6.1 0.00 0.00 0.00 46 1009.9
20260504020009 74 269 1.7 7.0 0.00 0.00 0.00 46 1009.9
20260504015504 74 265 1.7 7.8 0.00 0.00 0.00 45 1009.9
20260504015004 74 261 3.5 7.8 0.00 0.00 0.00 45 1010.1
20260504014510 75 221 0.9 6.1 0.00 0.00 0.00 45 1010.1
20260504014003 75 344 1.7 6.1 0.00 0.00 0.00 46 1010.1
20260504013507 75 265 1.7 7.0 0.00 0.00 0.00 46 1010.1
20260504013018 75 234 1.7 8.7 0.00 0.00 0.00 45 1010.2
20260504012510 75 298 5.2 8.7 0.00 0.00 0.00 45 1010.2
20260504012008 75 252 1.7 8.7 0.00 0.00 0.00 46 1010.2
20260504011518 75 216 2.6 8.7 0.00 0.00 0.00 45 1010.3
20260504011003 75 298 2.6 7.8 0.00 0.00 0.00 45 1010.3
20260504010502 76 280 4.3 7.8 0.00 0.00 0.00 45 1010.3
20260504010003 76 275 4.3 8.7 0.00 0.00 0.00 45 1010.3
20260504005504 76 236 3.5 8.7 0.00 0.00 0.00 45 1010.3
20260504005004 76 263 5.2 10.4 0.00 0.00 0.00 44 1010.4
20260504004516 77 238 3.5 10.4 0.00 0.00 0.00 44 1010.5
20260504004004 77 288 3.5 7.0 0.00 0.00 0.00 45 1010.4
20260504003503 77 239 3.5 7.0 0.00 0.00 0.00 44 1010.4
20260504003010 77 299 2.6 7.8 0.00 0.00 0.00 44 1010.5
20260504002503 78 296 3.5 8.7 0.00 0.00 0.00 42 1010.6
20260504002006 78 220 2.6 10.4 0.00 0.00 0.00 44 1010.5
20260504001520 78 277 4.3 10.4 0.00 0.00 0.00 43 1010.6
20260504001007 79 321 5.2 7.8 0.00 0.00 0.00 43 1010.7
20260504000508 79 249 4.3 7.8 0.00 0.00 0.00 41 1010.7
20260504000024 79 262 4.3 7.8 0.00 0.00 0.00 42 1010.8
20260503235503 79 235 3.5 7.8 0.00 0.00 0.00 40 1010.8
20260503235011 79 248 5.2 8.7 0.00 0.00 0.00 41 1010.8
20260503234515 79 280 3.5 8.7 0.00 0.00 0.00 42 1010.8
20260503234008 80 231 1.7 9.6 0.00 0.00 0.00 41 1010.8
20260503233501 80 306 3.5 9.6 0.00 0.00 0.00 40 1010.8
20260503233012 80 302 2.6 7.8 0.00 0.00 0.00 42 1010.9
20260503232505 80 271 3.5 7.8 0.00 0.00 0.00 42 1011.0
20260503232005 81 333 4.3 7.8 0.00 0.00 0.00 41 1011.1
20260503231520 81 294 3.5 7.8 0.00 0.00 0.00 42 1011.2
20260503231007 81 273 2.6 7.8 0.00 0.00 0.00 43 1011.3
20260503230507 80 315 3.5 6.1 0.00 0.00 0.00 42 1011.4
20260503230018 80 257 1.7 6.1 0.00 0.00 0.00 44 1011.4
20260503225509 80 296 3.5 8.7 0.00 0.00 0.00 45 1011.6
20260503225007 80 252 3.5 8.7 0.00 0.00 0.00 44 1011.6
20260503224504 79 273 4.3 8.7 0.00 0.00 0.00 43 1011.6
20260503224003 80 239 3.5 7.8 0.00 0.00 0.00 41 1011.7
20260503223503 81 205 3.5 9.6 0.00 0.00 0.00 42 1011.7
20260503223008 81 244 4.3 9.6 0.00 0.00 0.00 43 1011.8
20260503222503 81 260 3.5 8.7 0.00 0.00 0.00 44 1011.8
20260503222005 81 286 3.5 7.0 0.00 0.00 0.00 45 1011.8
20260503221515 80 205 1.7 7.0 0.00 0.00 0.00 46 1011.9
20260503221007 80 209 3.5 7.0 0.00 0.00 0.00 43 1012.0
20260503220509 81 194 3.5 7.0 0.00 0.00 0.00 43 1012.0
20260503220021 80 311 2.6 7.0 0.00 0.00 0.00 45 1012.1
20260503215507 80 329 4.3 7.8 0.00 0.00 0.00 45 1012.2
20260503215009 80 278 4.3 7.8 0.00 0.00 0.00 43 1012.2
20260503214537 80 264 2.6 11.3 0.00 0.00 0.00 49 1012.3
20260503214009 80 225 5.2 11.3 0.00 0.00 0.00 44 1012.4
20260503213503 80 264 3.5 7.8 0.00 0.00 0.00 45 1012.4
20260503213007 80 298 3.5 7.8 0.00 0.00 0.00 44 1012.5
20260503212503 80 287 3.5 7.8 0.00 0.00 0.00 44 1012.5
20260503212006 80 304 1.7 7.0 0.00 0.00 0.00 47 1012.5
20260503211513 79 294 2.6 8.7 0.00 0.00 0.00 48 1012.5
20260503211006 79 279 4.3 9.6 0.00 0.00 0.00 45 1012.6
20260503210507 80 183 2.6 9.6 0.00 0.00 0.00 46 1012.6
20260503210016 80 311 2.6 8.7 0.00 0.00 0.00 46 1012.6
20260503205506 80 225 3.5 8.7 0.00 0.00 0.00 43 1012.8
20260503205009 80 285 2.6 7.0 0.00 0.00 0.00 48 1012.8
20260503204522 79 280 4.3 7.0 0.00 0.00 0.00 46 1012.8
20260503204007 79 237 3.5 7.0 0.00 0.00 0.00 49 1012.8
20260503203507 79 292 1.7 7.0 0.00 0.00 0.00 44 1012.8
20260503203023 79 288 2.6 7.8 0.00 0.00 0.00 48 1012.9
20260503202510 79 288 3.5 7.8 0.00 0.00 0.00 47 1012.9
20260503202004 78 254 3.5 7.0 0.00 0.00 0.00 48 1013.0
20260503201512 78 293 1.7 7.0 0.00 0.00 0.00 51 1013.0
20260503201007 78 288 4.3 7.0 0.00 0.00 0.00 47 1013.1
20260503200503 77 274 2.6 7.8 0.00 0.00 0.00 50 1013.1
20260503200034 77 280 2.6 7.8 0.00 0.00 0.00 52 1013.2
20260503195505 77 227 2.6 7.0 0.00 0.00 0.00 52 1013.3
20260503195010 76 279 3.5 7.0 0.00 0.00 0.00 50 1013.4
20260503194522 76 281 3.5 7.0 0.00 0.00 0.00 53 1013.5
20260503194009 76 230 3.5 6.1 0.00 0.00 0.00 51 1013.6
20260503193508 76 240 1.7 7.8 0.00 0.00 0.00 52 1013.6
20260503193032 76 315 3.5 8.7 0.00 0.00 0.00 56 1013.8
20260503192507 75 302 1.7 8.7 0.00 0.00 0.00 55 1013.8
20260503192011 74 292 2.6 8.7 0.00 0.00 0.00 53 1013.9
20260503191526 74 190 1.7 8.7 0.00 0.00 0.00 52 1013.9
20260503191004 74 257 4.3 8.7 0.00 0.00 0.00 56 1013.9
20260503190506 74 244 3.5 7.8 0.00 0.00 0.00 56 1014.0
20260503190014 74 275 4.3 7.8 0.00 0.00 0.00 55 1014.0
20260503185506 74 256 1.7 6.1 0.00 0.00 0.00 55 1014.0
20260503185008 74 254 0.9 7.0 0.00 0.00 0.00 56 1014.1
20260503184520 74 288 3.5 7.0 0.00 0.00 0.00 55 1014.2
20260503184007 74 275 3.5 7.0 0.00 0.00 0.00 56 1014.2
20260503183509 73 273 1.7 6.1 0.00 0.00 0.00 59 1014.3
20260503183026 72 254 1.7 6.1 0.00 0.00 0.00 58 1014.3
20260503182507 72 256 3.5 8.7 0.00 0.00 0.00 58 1014.4
20260503182015 72 320 2.6 8.7 0.00 0.00 0.00 59 1014.4
20260503181524 72 321 1.7 5.2 0.00 0.00 0.00 59 1014.4
20260503181007 72 232 1.7 7.0 0.00 0.00 0.00 59 1014.5
20260503180510 71 215 2.6 7.0 0.00 0.00 0.00 59 1014.6
20260503180043 71 246 2.6 7.0 0.00 0.00 0.00 61 1014.6
20260503175506 71 218 3.5 7.0 0.00 0.00 0.00 60 1014.7
20260503175003 71 301 2.6 4.3 0.00 0.00 0.00 61 1014.7
20260503174524 71 221 1.7 4.3 0.00 0.00 0.00 61 1014.7
20260503174007 71 216 0.9 5.2 0.00 0.00 0.00 62 1014.7
20260503173509 70 282 2.6 6.1 0.00 0.00 0.00 63 1014.7
20260503173034 70 321 2.6 6.1 0.00 0.00 0.00 62 1014.8
20260503172509 69 306 2.6 7.0 0.00 0.00 0.00 63 1014.9
20260503172007 69 299 3.5 7.0 0.00 0.00 0.00 62 1014.9
20260503171524 69 238 1.7 4.3 0.00 0.00 0.00 64 1014.9
20260503171006 68 336 0.9 5.2 0.00 0.00 0.00 64 1014.9
20260503170506 68 267 0.9 5.2 0.00 0.00 0.00 64 1014.9
20260503151002 53 241 0.9 1.7 0.00 0.00 0.00 92 1015.3
20260503150507 53 286 0.0 1.7 0.00 0.00 0.00 92 1015.3
20260503131007 48 17 0.0 0.9 0.00 0.00 0.00 89 1014.9
20260503130507 48 17 0.0 1.7 0.00 0.00 0.00 89 1014.9
20260503110510 50 352 0.0 1.7 0.00 0.00 0.00 87 1015.2
20260503090504 53 360 0.0 1.7 0.00 0.00 0.00 84 1015.4
20260503081537 54 13 0.0 0.9 0.00 0.00 0.00 82 1015.5
20260503081002 54 16 0.0 1.7 0.00 0.00 0.00 82 1015.4
20260503080502 54 16 0.0 1.7 0.00 0.00 0.00 82 1015.4
20260503072505 55 9 0.0 1.7 0.00 0.00 0.00 79 1015.2
20260503072002 56 9 0.0 1.7 0.00 0.00 0.00 78 1015.1
20260503071505 56 22 0.0 1.7 0.00 0.00 0.00 78 1015.2
20260503071003 56 23 0.0 1.7 0.00 0.00 0.00 77 1015.2
20260503070502 56 311 0.0 1.7 0.00 0.00 0.00 77 1015.1